| time (UTC) | temp F | wind direction | speed knots | gust knots | rain 1hr in | rain 24hr in | rain mn in | humidity % | barometer mb |
| 20260505031533 | 50 | 240 | 18.2 | 21.7 | 0.00 | 0.00 | 0.00 | 76 | 1005.8 |
| 20260505030020 | 50 | 250 | 15.6 | 18.2 | 0.00 | 0.00 | 0.00 | 76 | 1005.8 |
| 20260505024519 | 50 | 249 | 14.8 | 18.2 | 0.00 | 0.00 | 0.00 | 77 | 1005.7 |
| 20260505023019 | 50 | 253 | 14.8 | 18.2 | 0.00 | 0.00 | 0.00 | 77 | 1005.6 |
| 20260505021519 | 50 | 257 | 13.9 | 17.4 | 0.00 | 0.00 | 0.00 | 77 | 1005.6 |
| 20260505020018 | 50 | 248 | 15.6 | 19.1 | 0.00 | 0.00 | 0.00 | 77 | 1005.5 |
| 20260505014517 | 50 | 254 | 14.8 | 19.1 | 0.00 | 0.00 | 0.00 | 77 | 1005.4 |
| 20260505013017 | 50 | 264 | 12.2 | 15.6 | 0.00 | 0.00 | 0.00 | 79 | 1005.4 |
| 20260505011517 | 49 | 258 | 13.0 | 15.6 | 0.00 | 0.00 | 0.00 | 79 | 1005.2 |
| 20260505010022 | 49 | 270 | 11.3 | 14.8 | 0.00 | 0.00 | 0.00 | 79 | 1005.1 |
| 20260505004515 | 49 | 253 | 13.0 | 14.8 | 0.00 | 0.00 | 0.00 | 78 | 1004.8 |
| 20260505003014 | 49 | 246 | 10.4 | 13.0 | 0.00 | 0.00 | 0.00 | 78 | 1004.7 |
| 20260505001515 | 49 | 250 | 7.8 | 8.7 | 0.00 | 0.00 | 0.00 | 80 | 1004.6 |
| 20260505000014 | 48 | 241 | 3.5 | 4.3 | 0.00 | 0.00 | 0.00 | 81 | 1004.5 |
| 20260504234513 | 48 | 233 | 2.6 | 5.2 | 0.00 | 0.00 | 0.00 | 80 | 1004.3 |
| 20260504233013 | 48 | 181 | 0.9 | 4.3 | 0.00 | 0.00 | 0.00 | 80 | 1004.1 |
| 20260504231512 | 48 | 180 | 1.7 | 3.5 | 0.00 | 0.00 | 0.00 | 79 | 1004.0 |
| 20260504230013 | 48 | 169 | 0.9 | 2.6 | 0.00 | 0.00 | 0.00 | 79 | 1003.9 |
| 20260504224514 | 49 | 187 | 0.9 | 2.6 | 0.00 | 0.00 | 0.00 | 78 | 1003.7 |
| 20260504223020 | 49 | 177 | 0.9 | 3.5 | 0.00 | 0.00 | 0.00 | 78 | 1003.6 |
| 20260504221510 | 49 | 173 | 0.9 | 3.5 | 0.00 | 0.00 | 0.00 | 78 | 1003.5 |
| 20260504220015 | 49 | 207 | 0.9 | 3.5 | 0.00 | 0.00 | 0.00 | 78 | 1003.6 |
| 20260504214511 | 50 | 163 | 0.9 | 3.5 | 0.00 | 0.00 | 0.00 | 77 | 1003.6 |
| 20260504213020 | 50 | 155 | 0.9 | 7.0 | 0.00 | 0.00 | 0.00 | 77 | 1003.5 |
| 20260504211508 | 49 | 171 | 2.6 | 4.3 | 0.00 | 0.00 | 0.00 | 77 | 1003.5 |
| 20260504210011 | 51 | 208 | 0.9 | 4.3 | 0.00 | 0.00 | 0.00 | 74 | 1003.4 |
| 20260504204522 | 52 | 208 | 0.0 | 3.5 | 0.00 | 0.00 | 0.00 | 75 | 1003.4 |
| 20260504203007 | 50 | 161 | 2.6 | 4.3 | 0.00 | 0.00 | 0.00 | 76 | 1003.5 |
| 20260504201506 | 50 | 236 | 2.6 | 6.1 | 0.00 | 0.00 | 0.00 | 75 | 1003.5 |
| 20260504200006 | 50 | 228 | 3.5 | 4.3 | 0.00 | 0.00 | 0.00 | 77 | 1003.4 |
| 20260504194505 | 50 | 247 | 5.2 | 6.1 | 0.00 | 0.00 | 0.00 | 74 | 1003.5 |
| 20260504193005 | 51 | 311 | 1.7 | 4.3 | 0.00 | 0.00 | 0.00 | 72 | 1003.7 |
| 20260504191503 | 49 | 275 | 7.8 | 11.3 | 0.00 | 0.00 | 0.00 | 78 | 1003.6 |
| 20260504190003 | 49 | 260 | 8.7 | 12.2 | 0.00 | 0.00 | 0.00 | 76 | 1003.6 |
| 20260504184502 | 49 | 256 | 11.3 | 13.9 | 0.00 | 0.00 | 0.00 | 75 | 1003.5 |
| 20260504183002 | 50 | 259 | 12.2 | 13.9 | 0.00 | 0.00 | 0.00 | 73 | 1003.5 |
| 20260504181502 | 51 | 271 | 7.0 | 13.9 | 0.00 | 0.00 | 0.00 | 70 | 1003.6 |
| 20260504180100 | 51 | 259 | 11.3 | 14.8 | 0.00 | 0.00 | 0.00 | 71 | 1003.5 |
| 20260504174614 | 50 | 275 | 3.5 | 9.6 | 0.00 | 0.01 | 0.00 | 75 | 1003.5 |
| 20260504173055 | 49 | 234 | 8.7 | 12.2 | 0.00 | 0.01 | 0.00 | 77 | 1003.2 |
| 20260504171555 | 48 | 231 | 11.3 | 15.6 | 0.00 | 0.01 | 0.00 | 77 | 1003.3 |
| 20260504081534 | 44 | 270 | 9.6 | 12.2 | 0.00 | 0.15 | 0.00 | 68 | 1005.7 |
| 20260504050022 | 44 | 271 | 7.0 | 8.7 | 0.00 | 0.17 | 0.00 | 73 | 1005.5 |
| 20260504044533 | 44 | 273 | 7.0 | 9.6 | 0.00 | 0.17 | 0.00 | 72 | 1005.4 |
| 20260504043023 | 43 | 277 | 5.2 | 7.0 | 0.00 | 0.17 | 0.00 | 74 | 1005.6 |
| 20260504041514 | 44 | 292 | 5.2 | 7.0 | 0.00 | 0.17 | 0.00 | 71 | 1005.5 |
| 20260504040012 | 44 | 273 | 7.0 | 9.6 | 0.00 | 0.17 | 0.17 | 68 | 1005.4 |
| 20260504034512 | 44 | 272 | 7.0 | 8.7 | 0.00 | 0.17 | 0.17 | 69 | 1005.2 |
| 20260504033011 | 44 | 275 | 6.1 | 8.7 | 0.00 | 0.17 | 0.17 | 68 | 1005.2 |